Time,TemperatureF,DewpointF,PressureIn,WindDirection,WindDirectionDegrees,WindSpeedMPH,WindSpeedGustMPH,Humidity,HourlyPrecipIn,Conditions,Clouds,dailyrainin,SoftwareType,DateUTC
2013-05-14 00:06:00,45.1,34.5,30.18,West,278,0.0,0.0,66,0.00,,,0.00,VWS V14.00,2013-05-14 04:06:00,
2013-05-14 00:09:00,45.1,34.5,30.18,West,278,0.0,0.0,66,0.00,,,0.00,VWS V14.00,2013-05-14 04:09:00,
2013-05-14 00:14:00,45.1,34.1,30.18,ESE,120,0.0,0.0,65,0.00,,,0.00,VWS V14.00,2013-05-14 04:14:00,
2013-05-14 00:20:00,45.3,35.0,30.18,WSW,255,0.0,0.0,67,0.00,,,0.00,VWS V14.00,2013-05-14 04:20:00,
2013-05-14 00:25:00,45.0,34.7,30.15,WSW,255,0.0,0.9,67,0.00,,,0.00,VWS V14.00,2013-05-14 04:25:00,
2013-05-14 00:30:00,45.0,34.3,30.15,WSW,255,0.0,0.0,66,0.00,,,0.00,VWS V14.00,2013-05-14 04:30:00,
2013-05-14 00:35:00,44.8,34.9,30.15,WSW,255,0.0,0.0,68,0.00,,,0.00,VWS V14.00,2013-05-14 04:35:00,
2013-05-14 00:40:00,44.6,34.0,30.18,WSW,255,0.0,0.0,66,0.00,,,0.00,VWS V14.00,2013-05-14 04:40:00,
2013-05-14 00:45:00,44.2,34.4,30.18,SSE,165,0.0,0.0,68,0.00,,,0.00,VWS V14.00,2013-05-14 04:45:00,
2013-05-14 00:50:00,44.1,34.6,30.18,SSE,165,0.0,0.0,69,0.00,,,0.00,VWS V14.00,2013-05-14 04:50:00,
2013-05-14 00:55:00,43.7,34.6,30.18,SSE,165,0.0,0.0,70,0.00,,,0.00,VWS V14.00,2013-05-14 04:55:00,
2013-05-14 01:00:00,43.5,34.4,30.18,SSE,165,0.0,0.0,70,0.00,,,0.00,VWS V14.00,2013-05-14 05:00:00,
2013-05-14 01:05:00,43.3,34.6,30.18,SSE,165,0.0,0.0,71,0.00,,,0.00,VWS V14.00,2013-05-14 05:05:00,
2013-05-14 01:10:00,43.2,34.8,30.15,SSE,165,0.0,0.0,72,0.00,,,0.00,VWS V14.00,2013-05-14 05:10:00,
2013-05-14 01:15:00,42.8,34.4,30.15,SSE,165,0.0,0.0,72,0.00,,,0.00,VWS V14.00,2013-05-14 05:15:00,
2013-05-14 01:21:00,42.6,34.6,30.15,West,278,0.0,0.0,73,0.00,,,0.00,VWS V14.00,2013-05-14 05:21:00,
2013-05-14 01:26:00,42.4,34.8,30.15,West,278,0.0,0.0,74,0.00,,,0.00,VWS V14.00,2013-05-14 05:26:00,
2013-05-14 01:31:00,42.3,35.2,30.15,West,278,0.0,0.0,76,0.00,,,0.00,VWS V14.00,2013-05-14 05:31:00,
2013-05-14 01:36:00,42.1,36.0,30.15,West,278,0.0,0.0,79,0.00,,,0.00,VWS V14.00,2013-05-14 05:36:00,
2013-05-14 01:41:00,42.1,35.4,30.18,West,278,0.0,0.0,77,0.00,,,0.00,VWS V14.00,2013-05-14 05:41:00,
2013-05-14 01:46:00,41.7,34.7,30.18,West,278,0.0,0.0,76,0.00,,,0.00,VWS V14.00,2013-05-14 05:46:00,
2013-05-14 01:51:00,41.7,34.7,30.18,West,278,0.0,0.0,76,0.00,,,0.00,VWS V14.00,2013-05-14 05:51:00,
2013-05-14 01:56:00,41.5,34.5,30.18,West,278,0.0,0.0,76,0.00,,,0.00,VWS V14.00,2013-05-14 05:56:00,
2013-05-14 02:01:00,41.5,34.5,30.18,West,278,0.0,0.0,76,0.00,,,0.00,VWS V14.00,2013-05-14 06:01:00,
2013-05-14 02:06:00,41.4,34.4,30.18,West,278,0.0,0.0,76,0.00,,,0.00,VWS V14.00,2013-05-14 06:06:00,
2013-05-14 02:11:00,41.2,34.5,30.18,West,278,0.0,0.0,77,0.00,,,0.00,VWS V14.00,2013-05-14 06:11:00,
2013-05-14 02:17:00,41.0,34.3,30.18,West,278,0.0,0.0,77,0.00,,,0.00,VWS V14.00,2013-05-14 06:17:00,
2013-05-14 02:22:00,41.0,34.3,30.18,West,278,0.0,0.0,77,0.00,,,0.00,VWS V14.00,2013-05-14 06:22:00,
2013-05-14 02:27:00,40.8,34.5,30.18,West,278,0.0,0.0,78,0.00,,,0.00,VWS V14.00,2013-05-14 06:27:00,
2013-05-14 02:32:00,40.6,34.3,30.18,West,278,0.0,0.0,78,0.00,,,0.00,VWS V14.00,2013-05-14 06:32:00,
2013-05-14 02:37:00,40.5,34.5,30.18,West,278,0.0,0.0,79,0.00,,,0.00,VWS V14.00,2013-05-14 06:37:00,
2013-05-14 02:42:00,40.3,34.6,30.15,West,278,0.0,0.0,80,0.00,,,0.00,VWS V14.00,2013-05-14 06:42:00,
2013-05-14 02:47:00,40.3,34.9,30.15,West,278,0.0,0.0,81,0.00,,,0.00,VWS V14.00,2013-05-14 06:47:00,
2013-05-14 02:52:00,40.3,34.9,30.15,West,278,0.0,0.0,81,0.00,,,0.00,VWS V14.00,2013-05-14 06:52:00,
2013-05-14 02:57:00,40.3,34.6,30.18,West,278,0.0,0.0,80,0.00,,,0.00,VWS V14.00,2013-05-14 06:57:00,
2013-05-14 03:02:00,40.1,35.1,30.18,West,278,0.0,0.0,82,0.00,,,0.00,VWS V14.00,2013-05-14 07:02:00,
2013-05-14 03:07:00,39.9,34.9,30.18,West,278,0.0,0.0,82,0.00,,,0.00,VWS V14.00,2013-05-14 07:07:00,
2013-05-14 03:12:00,39.7,35.0,30.18,West,278,0.0,0.0,83,0.00,,,0.00,VWS V14.00,2013-05-14 07:12:00,
2013-05-14 03:17:00,39.7,35.0,30.18,West,278,0.0,0.0,83,0.00,,,0.00,VWS V14.00,2013-05-14 07:17:00,
2013-05-14 03:22:00,39.7,35.3,30.18,West,278,0.0,0.0,84,0.00,,,0.00,VWS V14.00,2013-05-14 07:22:00,
2013-05-14 03:28:00,39.6,34.8,30.18,West,278,0.0,0.0,83,0.00,,,0.00,VWS V14.00,2013-05-14 07:28:00,
2013-05-14 03:33:00,39.6,34.8,30.18,West,278,0.0,0.0,83,0.00,,,0.00,VWS V14.00,2013-05-14 07:33:00,
2013-05-14 03:38:00,39.4,34.7,30.18,West,278,0.0,0.0,83,0.00,,,0.00,VWS V14.00,2013-05-14 07:38:00,
2013-05-14 03:43:00,39.4,34.7,30.18,West,278,0.0,0.0,83,0.00,,,0.00,VWS V14.00,2013-05-14 07:43:00,
2013-05-14 03:48:00,39.4,35.0,30.18,West,278,0.0,0.0,84,0.00,,,0.00,VWS V14.00,2013-05-14 07:48:00,
2013-05-14 03:53:00,39.2,34.8,30.18,West,278,0.0,0.0,84,0.00,,,0.00,VWS V14.00,2013-05-14 07:53:00,
2013-05-14 03:58:00,39.2,35.1,30.18,West,278,0.0,0.0,85,0.00,,,0.00,VWS V14.00,2013-05-14 07:58:00,
2013-05-14 04:03:00,39.0,34.9,30.18,West,278,0.0,0.0,85,0.00,,,0.00,VWS V14.00,2013-05-14 08:03:00,
2013-05-14 04:08:00,39.0,35.2,30.18,West,278,0.0,0.0,86,0.00,,,0.00,VWS V14.00,2013-05-14 08:08:00,
2013-05-14 04:13:00,38.8,35.0,30.18,West,278,0.0,0.0,86,0.00,,,0.00,VWS V14.00,2013-05-14 08:13:00,
2013-05-14 04:18:00,38.8,34.7,30.18,West,278,0.0,0.0,85,0.00,,,0.00,VWS V14.00,2013-05-14 08:18:00,
2013-05-14 04:23:00,38.8,34.7,30.18,West,278,0.0,0.0,85,0.00,,,0.00,VWS V14.00,2013-05-14 08:23:00,
2013-05-14 04:28:00,38.7,34.5,30.18,West,278,0.0,0.0,85,0.00,,,0.00,VWS V14.00,2013-05-14 08:28:00,
2013-05-14 04:33:00,38.7,34.5,30.18,West,278,0.0,0.0,85,0.00,,,0.00,VWS V14.00,2013-05-14 08:33:00,
2013-05-14 04:39:00,38.7,34.8,30.18,West,278,0.0,0.0,86,0.00,,,0.00,VWS V14.00,2013-05-14 08:39:00,
2013-05-14 04:44:00,38.5,34.7,30.18,West,278,0.0,0.0,86,0.00,,,0.00,VWS V14.00,2013-05-14 08:44:00,
2013-05-14 04:49:00,38.5,35.0,30.18,West,278,0.0,0.0,87,0.00,,,0.00,VWS V14.00,2013-05-14 08:49:00,
2013-05-14 04:54:00,38.5,34.7,30.18,West,278,0.0,0.0,86,0.00,,,0.00,VWS V14.00,2013-05-14 08:54:00,
2013-05-14 04:59:00,38.5,34.7,30.21,West,278,0.0,0.0,86,0.00,,,0.00,VWS V14.00,2013-05-14 08:59:00,
2013-05-14 05:04:00,38.3,34.5,30.21,West,278,0.0,0.0,86,0.00,,,0.00,VWS V14.00,2013-05-14 09:04:00,
2013-05-14 05:09:00,38.1,34.6,30.21,West,278,0.0,0.0,87,0.00,,,0.00,VWS V14.00,2013-05-14 09:09:00,
2013-05-14 05:14:00,38.1,34.6,30.21,West,278,0.0,0.0,87,0.00,,,0.00,VWS V14.00,2013-05-14 09:14:00,
2013-05-14 05:19:00,38.1,34.6,30.21,West,278,0.0,0.0,87,0.00,,,0.00,VWS V14.00,2013-05-14 09:19:00,
2013-05-14 05:24:00,38.1,34.9,30.21,West,278,0.0,0.0,88,0.00,,,0.00,VWS V14.00,2013-05-14 09:24:00,
2013-05-14 05:29:00,37.9,34.4,30.21,West,278,0.0,0.0,87,0.00,,,0.00,VWS V14.00,2013-05-14 09:29:00,
2013-05-14 05:34:00,37.9,34.4,30.21,West,278,0.0,0.0,87,0.00,,,0.00,VWS V14.00,2013-05-14 09:34:00,
2013-05-14 05:40:00,37.8,34.2,30.21,West,278,0.0,0.0,87,0.00,,,0.00,VWS V14.00,2013-05-14 09:40:00,
2013-05-14 05:45:00,37.8,34.2,30.21,West,278,0.0,0.0,87,0.00,,,0.00,VWS V14.00,2013-05-14 09:45:00,
2013-05-14 05:50:00,37.8,34.2,30.21,West,278,0.0,0.0,87,0.00,,,0.00,VWS V14.00,2013-05-14 09:50:00,
2013-05-14 05:55:00,37.6,34.1,30.21,West,278,0.0,0.0,87,0.00,,,0.00,VWS V14.00,2013-05-14 09:55:00,
2013-05-14 06:05:00,37.4,33.9,30.21,West,278,0.0,0.0,87,0.00,,,0.00,VWS V14.00,2013-05-14 10:05:00,
2013-05-14 06:10:00,37.4,33.9,30.21,West,278,0.0,0.0,87,0.00,,,0.00,VWS V14.00,2013-05-14 10:10:00,
2013-05-14 06:16:00,37.4,34.2,30.21,West,278,0.0,0.0,88,0.00,,,0.00,VWS V14.00,2013-05-14 10:16:00,
2013-05-14 06:21:00,37.2,34.0,30.21,West,278,0.0,0.0,88,0.00,,,0.00,VWS V14.00,2013-05-14 10:21:00,
2013-05-14 06:26:00,37.2,34.0,30.21,West,278,0.0,0.0,88,0.00,,,0.00,VWS V14.00,2013-05-14 10:26:00,
2013-05-14 06:31:00,37.2,34.0,30.21,West,278,0.0,0.0,88,0.00,,,0.00,VWS V14.00,2013-05-14 10:31:00,
2013-05-14 06:36:00,37.0,34.1,30.21,West,278,0.0,0.0,89,0.00,,,0.00,VWS V14.00,2013-05-14 10:36:00,
2013-05-14 06:41:00,37.2,34.3,30.24,West,278,0.0,0.0,89,0.00,,,0.00,VWS V14.00,2013-05-14 10:41:00,
2013-05-14 06:46:00,37.2,34.3,30.24,West,278,0.0,0.0,89,0.00,,,0.00,VWS V14.00,2013-05-14 10:46:00,
2013-05-14 06:51:00,37.4,34.5,30.24,West,278,0.0,0.0,89,0.00,,,0.00,VWS V14.00,2013-05-14 10:51:00,
2013-05-14 06:57:00,37.4,34.5,30.27,West,278,0.0,0.0,89,0.00,,,0.00,VWS V14.00,2013-05-14 10:57:00,
2013-05-14 07:02:00,37.6,34.6,30.27,West,278,0.0,0.0,89,0.00,,,0.00,VWS V14.00,2013-05-14 11:02:00,
2013-05-14 07:07:00,37.6,34.6,30.27,West,278,0.0,0.0,89,0.00,,,0.00,VWS V14.00,2013-05-14 11:07:00,
2013-05-14 07:12:00,37.8,34.8,30.24,West,278,0.0,0.0,89,0.00,,,0.00,VWS V14.00,2013-05-14 11:12:00,
2013-05-14 07:17:00,38.1,35.5,30.24,West,278,0.0,0.0,90,0.00,,,0.00,VWS V14.00,2013-05-14 11:17:00,
2013-05-14 07:22:00,38.5,35.8,30.24,West,278,0.0,0.0,90,0.00,,,0.00,VWS V14.00,2013-05-14 11:22:00,
2013-05-14 07:27:00,38.7,36.0,30.24,West,278,0.0,0.0,90,0.00,,,0.00,VWS V14.00,2013-05-14 11:27:00,
2013-05-14 07:32:00,39.0,36.6,30.24,West,278,0.0,0.0,91,0.00,,,0.00,VWS V14.00,2013-05-14 11:32:00,
2013-05-14 07:37:00,39.6,37.2,30.24,West,278,0.0,0.0,91,0.00,,,0.00,VWS V14.00,2013-05-14 11:37:00,
2013-05-14 07:42:00,40.1,37.7,30.24,West,278,0.0,0.0,91,0.00,,,0.00,VWS V14.00,2013-05-14 11:42:00,
2013-05-14 07:47:00,40.5,38.0,30.24,West,278,0.0,0.0,91,0.00,,,0.00,VWS V14.00,2013-05-14 11:47:00,
2013-05-14 07:52:00,41.0,38.6,30.24,West,278,0.0,0.0,91,0.00,,,0.00,VWS V14.00,2013-05-14 11:52:00,
2013-05-14 07:57:00,41.5,39.1,30.27,West,278,0.0,0.0,91,0.00,,,0.00,VWS V14.00,2013-05-14 11:57:00,
2013-05-14 08:02:00,42.3,39.8,30.27,West,278,0.0,0.0,91,0.00,,,0.00,VWS V14.00,2013-05-14 12:02:00,
2013-05-14 08:07:00,42.8,40.1,30.27,West,278,0.0,0.0,90,0.00,,,0.00,VWS V14.00,2013-05-14 12:07:00,
2013-05-14 08:12:00,43.5,40.8,30.27,West,278,0.0,0.0,90,0.00,,,0.00,VWS V14.00,2013-05-14 12:12:00,
2013-05-14 08:18:00,44.6,41.6,30.27,West,278,0.0,0.0,89,0.00,,,0.00,VWS V14.00,2013-05-14 12:18:00,
2013-05-14 08:23:00,45.5,42.2,30.27,West,278,0.0,0.0,88,0.00,,,0.00,VWS V14.00,2013-05-14 12:23:00,
2013-05-14 08:28:00,46.2,42.6,30.24,West,278,0.0,0.0,87,0.00,,,0.00,VWS V14.00,2013-05-14 12:28:00,
2013-05-14 08:33:00,47.1,42.5,30.24,West,278,0.0,0.0,84,0.00,,,0.00,VWS V14.00,2013-05-14 12:33:00,
2013-05-14 08:38:00,47.8,42.6,30.24,West,278,0.0,0.0,82,0.00,,,0.00,VWS V14.00,2013-05-14 12:38:00,
2013-05-14 08:43:00,48.4,42.5,30.24,West,278,0.0,0.0,80,0.00,,,0.00,VWS V14.00,2013-05-14 12:43:00,
2013-05-14 08:48:00,49.1,42.2,30.24,West,278,0.0,0.0,77,0.00,,,0.00,VWS V14.00,2013-05-14 12:48:00,
2013-05-14 08:53:00,50.0,41.0,30.24,East,98,2.5,2.5,71,0.00,,,0.00,VWS V14.00,2013-05-14 12:53:00,
2013-05-14 08:58:00,50.7,41.7,30.24,East,98,0.0,0.0,71,0.00,,,0.00,VWS V14.00,2013-05-14 12:58:00,
2013-05-14 09:03:00,51.4,41.2,30.24,East,98,0.0,0.0,68,0.00,,,0.00,VWS V14.00,2013-05-14 13:03:00,
2013-05-14 09:08:00,52.0,40.2,30.24,East,98,0.0,3.1,64,0.00,,,0.00,VWS V14.00,2013-05-14 13:08:00,
2013-05-14 09:13:00,52.5,39.9,30.24,East,98,1.3,3.6,62,0.00,,,0.00,VWS V14.00,2013-05-14 13:13:00,
2013-05-14 09:18:00,53.4,40.7,30.24,SSE,165,0.0,1.1,62,0.00,,,0.00,VWS V14.00,2013-05-14 13:18:00,
2013-05-14 09:23:00,53.6,38.3,30.24,East,98,1.3,3.6,56,0.00,,,0.00,VWS V14.00,2013-05-14 13:23:00,
2013-05-14 09:29:00,54.1,36.4,30.24,East,98,2.7,4.3,51,0.00,,,0.00,VWS V14.00,2013-05-14 13:29:00,
2013-05-14 09:34:00,54.5,37.7,30.24,South,188,0.9,3.8,53,0.00,,,0.00,VWS V14.00,2013-05-14 13:34:00,
2013-05-14 09:39:00,55.2,38.9,30.24,South,188,0.0,1.6,54,0.00,,,0.00,VWS V14.00,2013-05-14 13:39:00,
2013-05-14 09:44:00,55.8,37.9,30.24,ENE,75,2.5,2.7,51,0.00,,,0.00,VWS V14.00,2013-05-14 13:44:00,
2013-05-14 09:49:00,55.9,36.0,30.24,East,98,3.6,5.4,47,0.00,,,0.00,VWS V14.00,2013-05-14 13:49:00,
2013-05-14 09:54:00,56.3,36.9,30.24,East,98,1.6,3.4,48,0.00,,,0.00,VWS V14.00,2013-05-14 13:54:00,
2013-05-14 09:59:00,56.7,38.2,30.24,SE,142,0.0,2.2,50,0.00,,,0.00,VWS V14.00,2013-05-14 13:59:00,
2013-05-14 10:04:00,56.8,37.4,30.24,South,188,0.0,2.9,48,0.00,,,0.00,VWS V14.00,2013-05-14 14:04:00,
2013-05-14 10:09:00,57.2,38.2,30.24,WNW,300,0.0,1.3,49,0.00,,,0.00,VWS V14.00,2013-05-14 14:09:00,
2013-05-14 10:14:00,57.6,38.0,30.24,WNW,300,0.0,2.2,48,0.00,,,0.00,VWS V14.00,2013-05-14 14:14:00,
2013-05-14 10:19:00,57.9,38.4,30.24,SSE,165,0.9,1.6,48,0.00,,,0.00,VWS V14.00,2013-05-14 14:19:00,
2013-05-14 10:24:00,57.9,37.3,30.24,SSW,210,0.0,2.2,46,0.00,,,0.00,VWS V14.00,2013-05-14 14:24:00,
2013-05-14 10:30:00,58.1,38.0,30.24,SW,232,2.5,2.5,47,0.00,,,0.00,VWS V14.00,2013-05-14 14:30:00,
2013-05-14 10:35:00,58.6,37.9,30.24,WSW,255,1.3,2.5,46,0.00,,,0.00,VWS V14.00,2013-05-14 14:35:00,
2013-05-14 10:40:00,58.8,38.1,30.24,South,188,0.0,3.1,46,0.00,,,0.00,VWS V14.00,2013-05-14 14:40:00,
2013-05-14 10:45:00,59.0,37.1,30.24,ENE,75,1.1,2.7,44,0.00,,,0.00,VWS V14.00,2013-05-14 14:45:00,
2013-05-14 10:50:00,59.0,37.1,30.24,North,8,0.0,3.1,44,0.00,,,0.00,VWS V14.00,2013-05-14 14:50:00,
2013-05-14 10:55:00,59.5,37.0,30.27,South,188,1.6,1.6,43,0.00,,,0.00,VWS V14.00,2013-05-14 14:55:00,
2013-05-14 11:00:00,59.7,37.2,30.27,SSE,165,0.0,0.0,43,0.00,,,0.00,VWS V14.00,2013-05-14 15:00:00,
2013-05-14 11:05:00,60.3,37.7,30.27,ESE,120,2.0,2.5,43,0.00,,,0.00,VWS V14.00,2013-05-14 15:05:00,
2013-05-14 11:10:00,60.4,37.3,30.24,SSW,210,0.0,0.0,42,0.00,,,0.00,VWS V14.00,2013-05-14 15:10:00,
2013-05-14 11:15:00,60.4,37.3,30.24,WNW,300,0.0,0.0,42,0.00,,,0.00,VWS V14.00,2013-05-14 15:15:00,
2013-05-14 11:20:00,60.8,37.6,30.24,NW,322,1.6,1.6,42,0.00,,,0.00,VWS V14.00,2013-05-14 15:20:00,
2013-05-14 11:25:00,60.6,36.8,30.24,WNW,300,4.3,4.3,41,0.00,,,0.00,VWS V14.00,2013-05-14 15:25:00,
2013-05-14 11:30:00,60.8,36.3,30.24,West,278,0.0,0.0,40,0.00,,,0.00,VWS V14.00,2013-05-14 15:30:00,
2013-05-14 11:35:00,61.2,36.0,30.24,West,278,2.7,3.4,39,0.00,,,0.00,VWS V14.00,2013-05-14 15:35:00,
2013-05-14 11:41:00,61.3,36.2,30.24,WNW,300,1.6,2.5,39,0.00,,,0.00,VWS V14.00,2013-05-14 15:41:00,
2013-05-14 11:46:00,61.5,35.7,30.24,SSW,210,0.0,3.6,38,0.00,,,0.00,VWS V14.00,2013-05-14 15:46:00,
2013-05-14 11:51:00,62.1,37.5,30.24,SE,142,2.7,2.7,40,0.00,,,0.00,VWS V14.00,2013-05-14 15:51:00,
2013-05-14 11:56:00,62.4,37.2,30.24,WSW,255,1.3,2.7,39,0.00,,,0.00,VWS V14.00,2013-05-14 15:56:00,
2013-05-14 12:06:00,63.0,37.0,30.24,SW,232,0.0,1.1,38,0.00,,,0.00,VWS V14.00,2013-05-14 16:06:00,
2013-05-14 12:11:00,63.3,36.6,30.21,SW,232,1.6,2.7,37,0.00,,,0.00,VWS V14.00,2013-05-14 16:11:00,
2013-05-14 12:16:00,64.4,37.6,30.21,WNW,300,0.0,0.0,37,0.00,,,0.00,VWS V14.00,2013-05-14 16:16:00,
2013-05-14 12:21:00,65.5,38.5,30.21,SE,142,2.2,2.7,37,0.00,,,0.00,VWS V14.00,2013-05-14 16:21:00,
2013-05-14 12:26:00,65.1,37.5,30.21,SSE,165,0.9,2.7,36,0.00,,,0.00,VWS V14.00,2013-05-14 16:26:00,
2013-05-14 12:31:00,65.8,38.2,30.21,SW,232,0.0,1.1,36,0.00,,,0.00,VWS V14.00,2013-05-14 16:31:00,
2013-05-14 12:36:00,66.4,37.9,30.21,WNW,300,1.3,2.9,35,0.00,,,0.00,VWS V14.00,2013-05-14 16:36:00,
2013-05-14 12:41:00,67.1,38.6,30.18,WSW,255,2.7,3.4,35,0.00,,,0.00,VWS V14.00,2013-05-14 16:41:00,
2013-05-14 12:47:00,68.0,39.3,30.18,SE,142,0.0,0.9,35,0.00,,,0.00,VWS V14.00,2013-05-14 16:47:00,
2013-05-14 12:52:00,68.7,39.2,30.18,WNW,300,1.6,2.5,34,0.00,,,0.00,VWS V14.00,2013-05-14 16:52:00,
2013-05-14 12:57:00,68.5,39.1,30.15,SE,142,2.7,2.7,34,0.00,,,0.00,VWS V14.00,2013-05-14 16:57:00,
2013-05-14 13:02:00,68.0,38.6,30.15,SE,142,1.1,2.5,34,0.00,,,0.00,VWS V14.00,2013-05-14 17:02:00,
2013-05-14 13:07:00,67.3,38.0,30.15,SW,232,0.0,2.9,34,0.00,,,0.00,VWS V14.00,2013-05-14 17:07:00,
2013-05-14 13:12:00,66.9,36.9,30.18,WSW,255,1.1,3.6,33,0.00,,,0.00,VWS V14.00,2013-05-14 17:12:00,
2013-05-14 13:17:00,66.7,37.5,30.18,SE,142,2.0,4.3,34,0.00,,,0.00,VWS V14.00,2013-05-14 17:17:00,
2013-05-14 13:22:00,67.3,38.0,30.18,NNE,30,1.3,2.0,34,0.00,,,0.00,VWS V14.00,2013-05-14 17:22:00,
2013-05-14 13:27:00,66.9,36.9,30.18,WSW,255,2.2,2.7,33,0.00,,,0.00,VWS V14.00,2013-05-14 17:27:00,
2013-05-14 13:32:00,66.7,37.5,30.18,West,278,2.2,2.2,34,0.00,,,0.00,VWS V14.00,2013-05-14 17:32:00,
2013-05-14 13:37:00,67.5,38.1,30.18,NE,52,2.5,2.5,34,0.00,,,0.00,VWS V14.00,2013-05-14 17:37:00,
2013-05-14 13:42:00,67.6,38.3,30.18,SE,142,1.6,2.7,34,0.00,,,0.00,VWS V14.00,2013-05-14 17:42:00,
2013-05-14 13:47:00,67.6,38.3,30.18,SE,142,1.1,3.6,34,0.00,,,0.00,VWS V14.00,2013-05-14 17:47:00,
2013-05-14 13:53:00,67.3,37.2,30.18,WNW,300,4.0,4.0,33,0.00,,,0.00,VWS V14.00,2013-05-14 17:53:00,
2013-05-14 13:58:00,67.6,37.5,30.18,WNW,300,1.6,3.1,33,0.00,,,0.00,VWS V14.00,2013-05-14 17:58:00,
2013-05-14 14:03:00,67.6,37.5,30.18,SSW,210,1.6,3.1,33,0.00,,,0.00,VWS V14.00,2013-05-14 18:03:00,
2013-05-14 14:08:00,68.0,37.1,30.18,South,188,0.0,2.2,32,0.00,,,0.00,VWS V14.00,2013-05-14 18:08:00,
2013-05-14 14:13:00,68.5,37.5,30.15,SSE,165,0.0,3.1,32,0.00,,,0.00,VWS V14.00,2013-05-14 18:13:00,
2013-05-14 14:18:00,68.5,38.3,30.15,SSE,165,1.3,3.4,33,0.00,,,0.00,VWS V14.00,2013-05-14 18:18:00,
2013-05-14 14:23:00,68.7,37.7,30.15,SE,142,2.7,4.3,32,0.00,,,0.00,VWS V14.00,2013-05-14 18:23:00,
2013-05-14 14:28:00,69.6,39.3,30.15,SW,232,2.7,3.4,33,0.00,,,0.00,VWS V14.00,2013-05-14 18:28:00,
2013-05-14 14:33:00,70.7,39.4,30.15,SSE,165,0.0,3.1,32,0.00,,,0.00,VWS V14.00,2013-05-14 18:33:00,
2013-05-14 14:38:00,71.4,40.0,30.15,WNW,300,0.9,2.9,32,0.00,,,0.00,VWS V14.00,2013-05-14 18:38:00,
2013-05-14 14:43:00,71.1,39.7,30.15,SW,232,0.0,2.5,32,0.00,,,0.00,VWS V14.00,2013-05-14 18:43:00,
2013-05-14 14:48:00,70.0,36.3,30.15,NW,322,3.1,4.0,29,0.00,,,0.00,VWS V14.00,2013-05-14 18:48:00,
2013-05-14 14:54:00,69.6,38.5,30.15,West,278,1.6,3.1,32,0.00,,,0.00,VWS V14.00,2013-05-14 18:54:00,
2013-05-14 14:59:00,69.6,38.5,30.15,West,278,2.0,3.4,32,0.00,,,0.00,VWS V14.00,2013-05-14 18:59:00,
2013-05-14 15:04:00,69.4,38.3,30.15,SE,142,0.0,2.7,32,0.00,,,0.00,VWS V14.00,2013-05-14 19:04:00,
2013-05-14 15:09:00,69.3,38.2,30.15,SE,142,0.9,4.0,32,0.00,,,0.00,VWS V14.00,2013-05-14 19:09:00,
2013-05-14 15:14:00,69.3,38.2,30.12,SSE,165,2.5,3.1,32,0.00,,,0.00,VWS V14.00,2013-05-14 19:14:00,
2013-05-14 15:19:00,69.1,38.0,30.12,SW,232,0.9,2.5,32,0.00,,,0.00,VWS V14.00,2013-05-14 19:19:00,
2013-05-14 15:24:00,69.1,38.0,30.12,West,278,1.6,3.4,32,0.00,,,0.00,VWS V14.00,2013-05-14 19:24:00,
2013-05-14 15:29:00,68.9,37.8,30.12,West,278,1.1,4.0,32,0.00,,,0.00,VWS V14.00,2013-05-14 19:29:00,
2013-05-14 15:34:00,69.3,38.2,30.12,NW,322,3.6,3.6,32,0.00,,,0.00,VWS V14.00,2013-05-14 19:34:00,
2013-05-14 15:39:00,69.1,38.0,30.12,ENE,75,2.7,3.6,32,0.00,,,0.00,VWS V14.00,2013-05-14 19:39:00,
2013-05-14 15:44:00,69.3,39.0,30.12,SE,142,2.5,2.9,33,0.00,,,0.00,VWS V14.00,2013-05-14 19:44:00,
2013-05-14 15:49:00,69.3,38.2,30.12,East,98,0.0,4.3,32,0.00,,,0.00,VWS V14.00,2013-05-14 19:49:00,
2013-05-14 15:55:00,69.6,39.3,30.12,SW,232,2.7,3.6,33,0.00,,,0.00,VWS V14.00,2013-05-14 19:55:00,
2013-05-14 16:00:00,69.6,39.3,30.12,NE,52,0.0,2.9,33,0.00,,,0.00,VWS V14.00,2013-05-14 20:00:00,
2013-05-14 16:05:00,69.6,38.5,30.12,SE,142,2.0,2.9,32,0.00,,,0.00,VWS V14.00,2013-05-14 20:05:00,
2013-05-14 16:10:00,69.8,38.6,30.09,WNW,300,3.1,4.3,32,0.00,,,0.00,VWS V14.00,2013-05-14 20:10:00,
2013-05-14 16:15:00,69.6,38.5,30.09,SE,142,4.0,4.9,32,0.00,,,0.00,VWS V14.00,2013-05-14 20:15:00,
2013-05-14 16:20:00,69.6,38.5,30.09,East,98,4.7,5.4,32,0.00,,,0.00,VWS V14.00,2013-05-14 20:20:00,
2013-05-14 16:25:00,69.6,38.5,30.09,South,188,0.0,4.7,32,0.00,,,0.00,VWS V14.00,2013-05-14 20:25:00,
2013-05-14 16:30:00,70.0,38.8,30.09,SE,142,3.8,3.8,32,0.00,,,0.00,VWS V14.00,2013-05-14 20:30:00,
2013-05-14 16:35:00,70.7,39.4,30.09,SW,232,1.1,3.8,32,0.00,,,0.00,VWS V14.00,2013-05-14 20:35:00,
2013-05-14 16:40:00,70.7,39.4,30.09,SSE,165,0.0,1.1,32,0.00,,,0.00,VWS V14.00,2013-05-14 20:40:00,
2013-05-14 16:45:00,70.5,39.3,30.09,ESE,120,2.0,2.7,32,0.00,,,0.00,VWS V14.00,2013-05-14 20:45:00,
2013-05-14 16:50:00,70.5,39.3,30.09,SW,232,0.0,0.0,32,0.00,,,0.00,VWS V14.00,2013-05-14 20:50:00,
2013-05-14 16:55:00,70.5,39.3,30.09,NNE,30,0.0,1.6,32,0.00,,,0.00,VWS V14.00,2013-05-14 20:55:00,
2013-05-14 17:00:00,70.2,39.0,30.09,ESE,120,2.2,2.2,32,0.00,,,0.00,VWS V14.00,2013-05-14 21:00:00,
2013-05-14 17:05:00,70.2,39.0,30.09,SE,142,2.2,3.4,32,0.00,,,0.00,VWS V14.00,2013-05-14 21:05:00,
2013-05-14 17:10:00,70.0,38.8,30.09,NNE,30,2.0,2.5,32,0.00,,,0.00,VWS V14.00,2013-05-14 21:10:00,
2013-05-14 17:15:00,70.0,38.8,30.09,NNE,30,2.5,2.5,32,0.00,,,0.00,VWS V14.00,2013-05-14 21:15:00,
2013-05-14 17:20:00,70.0,38.8,30.09,East,98,0.0,3.1,32,0.00,,,0.00,VWS V14.00,2013-05-14 21:20:00,
2013-05-14 17:26:00,69.8,38.6,30.09,ESE,120,2.2,2.2,32,0.00,,,0.00,VWS V14.00,2013-05-14 21:26:00,
2013-05-14 17:31:00,69.6,39.3,30.09,ENE,75,2.0,2.7,33,0.00,,,0.00,VWS V14.00,2013-05-14 21:31:00,
2013-05-14 17:36:00,69.8,38.6,30.09,WSW,255,2.0,2.5,32,0.00,,,0.00,VWS V14.00,2013-05-14 21:36:00,
2013-05-14 17:41:00,69.8,38.6,30.09,SE,142,1.1,3.1,32,0.00,,,0.00,VWS V14.00,2013-05-14 21:41:00,
2013-05-14 17:46:00,69.8,38.6,30.09,SW,232,1.1,2.9,32,0.00,,,0.00,VWS V14.00,2013-05-14 21:46:00,
2013-05-14 17:51:00,69.6,39.3,30.09,North,8,1.1,1.1,33,0.00,,,0.00,VWS V14.00,2013-05-14 21:51:00,
2013-05-14 17:56:00,69.6,39.3,30.06,SW,232,0.0,1.3,33,0.00,,,0.00,VWS V14.00,2013-05-14 21:56:00,
2013-05-14 18:06:00,69.6,39.3,30.06,SSW,210,1.6,1.6,33,0.00,,,0.00,VWS V14.00,2013-05-14 22:06:00,
2013-05-14 18:11:00,69.4,39.1,30.09,SW,232,1.3,1.6,33,0.00,,,0.00,VWS V14.00,2013-05-14 22:11:00,
2013-05-14 18:16:00,69.4,39.1,30.09,South,188,0.0,2.2,33,0.00,,,0.00,VWS V14.00,2013-05-14 22:16:00,
2013-05-14 18:21:00,69.3,39.0,30.09,ESE,120,2.9,3.4,33,0.00,,,0.00,VWS V14.00,2013-05-14 22:21:00,
2013-05-14 18:26:00,69.1,38.8,30.06,WSW,255,1.1,2.2,33,0.00,,,0.00,VWS V14.00,2013-05-14 22:26:00,
2013-05-14 18:31:00,69.1,38.8,30.06,WSW,255,0.9,0.9,33,0.00,,,0.00,VWS V14.00,2013-05-14 22:31:00,
2013-05-14 18:36:00,69.1,38.8,30.06,WNW,300,0.0,0.0,33,0.00,,,0.00,VWS V14.00,2013-05-14 22:36:00,
2013-05-14 18:41:00,69.1,38.8,30.06,SE,142,1.6,2.2,33,0.00,,,0.00,VWS V14.00,2013-05-14 22:41:00,
2013-05-14 18:46:00,68.9,38.6,30.06,South,188,0.0,2.0,33,0.00,,,0.00,VWS V14.00,2013-05-14 22:46:00,
2013-05-14 18:51:00,68.7,38.5,30.06,SSE,165,0.0,1.1,33,0.00,,,0.00,VWS V14.00,2013-05-14 22:51:00,
2013-05-14 18:56:00,68.7,38.5,30.06,SE,142,1.3,1.3,33,0.00,,,0.00,VWS V14.00,2013-05-14 22:56:00,
2013-05-14 19:01:00,68.5,38.3,30.06,ESE,120,0.0,0.0,33,0.00,,,0.00,VWS V14.00,2013-05-14 23:01:00,
2013-05-14 19:06:00,68.5,38.3,30.06,WNW,300,0.9,1.3,33,0.00,,,0.00,VWS V14.00,2013-05-14 23:06:00,
2013-05-14 19:11:00,68.5,38.3,30.06,East,98,1.1,3.6,33,0.00,,,0.00,VWS V14.00,2013-05-14 23:11:00,
2013-05-14 19:17:00,68.2,38.8,30.06,WNW,300,1.3,1.3,34,0.00,,,0.00,VWS V14.00,2013-05-14 23:17:00,
2013-05-14 19:22:00,68.2,38.8,30.06,ESE,120,2.7,2.7,34,0.00,,,0.00,VWS V14.00,2013-05-14 23:22:00,
2013-05-14 19:27:00,68.0,38.6,30.06,WSW,255,0.0,0.0,34,0.00,,,0.00,VWS V14.00,2013-05-14 23:27:00,
2013-05-14 19:32:00,67.8,38.5,30.06,ESE,120,0.0,2.2,34,0.00,,,0.00,VWS V14.00,2013-05-14 23:32:00,
2013-05-14 19:37:00,67.6,38.3,30.06,SE,142,0.0,1.6,34,0.00,,,0.00,VWS V14.00,2013-05-14 23:37:00,
2013-05-14 19:42:00,67.5,38.1,30.06,SSE,165,0.0,0.0,34,0.00,,,0.00,VWS V14.00,2013-05-14 23:42:00,
2013-05-14 19:47:00,67.3,38.0,30.06,SSE,165,0.0,0.0,34,0.00,,,0.00,VWS V14.00,2013-05-14 23:47:00,
2013-05-14 19:52:00,67.1,37.8,30.06,SE,142,0.0,0.0,34,0.00,,,0.00,VWS V14.00,2013-05-14 23:52:00,
2013-05-14 19:57:00,66.7,38.2,30.06,SE,142,0.0,0.0,35,0.00,,,0.00,VWS V14.00,2013-05-14 23:57:00,
2013-05-14 20:02:00,66.6,38.1,30.06,SE,142,0.0,0.0,35,0.00,,,0.00,VWS V14.00,2013-05-15 00:02:00,
2013-05-14 20:07:00,66.2,37.8,30.06,SE,142,0.0,0.0,35,0.00,,,0.00,VWS V14.00,2013-05-15 00:07:00,
2013-05-14 20:13:00,65.7,38.0,30.06,SE,142,0.0,0.0,36,0.00,,,0.00,VWS V14.00,2013-05-15 00:13:00,
2013-05-14 20:18:00,65.5,38.5,30.06,SE,142,0.0,0.0,37,0.00,,,0.00,VWS V14.00,2013-05-15 00:18:00,
2013-05-14 20:23:00,64.8,38.6,30.06,SE,142,0.0,0.0,38,0.00,,,0.00,VWS V14.00,2013-05-15 00:23:00,
2013-05-14 20:28:00,64.4,38.9,30.06,SE,142,0.0,0.0,39,0.00,,,0.00,VWS V14.00,2013-05-15 00:28:00,
2013-05-14 20:33:00,63.9,39.1,30.06,SE,142,0.0,0.0,40,0.00,,,0.00,VWS V14.00,2013-05-15 00:33:00,
2013-05-14 20:38:00,63.5,38.8,30.06,SE,142,0.0,0.0,40,0.00,,,0.00,VWS V14.00,2013-05-15 00:38:00,
2013-05-14 20:43:00,63.1,39.1,30.06,SE,142,0.0,0.0,41,0.00,,,0.00,VWS V14.00,2013-05-15 00:43:00,
2013-05-14 20:48:00,63.0,39.5,30.06,SE,142,0.0,0.0,42,0.00,,,0.00,VWS V14.00,2013-05-15 00:48:00,
2013-05-14 20:53:00,62.6,39.2,30.06,SE,142,0.0,0.0,42,0.00,,,0.00,VWS V14.00,2013-05-15 00:53:00,
2013-05-14 20:58:00,62.4,39.7,30.06,SE,142,0.0,0.0,43,0.00,,,0.00,VWS V14.00,2013-05-15 00:58:00,
2013-05-14 21:03:00,62.1,39.9,30.06,SE,142,0.0,0.0,44,0.00,,,0.00,VWS V14.00,2013-05-15 01:03:00,
2013-05-14 21:08:00,61.9,39.8,30.06,SE,142,0.0,0.0,44,0.00,,,0.00,VWS V14.00,2013-05-15 01:08:00,
2013-05-14 21:14:00,61.5,40.0,30.03,SE,142,0.0,0.0,45,0.00,,,0.00,VWS V14.00,2013-05-15 01:14:00,
2013-05-14 21:19:00,61.2,39.7,30.03,SE,142,0.0,0.0,45,0.00,,,0.00,VWS V14.00,2013-05-15 01:19:00,
2013-05-14 21:24:00,60.8,39.3,30.03,SE,142,0.0,0.0,45,0.00,,,0.00,VWS V14.00,2013-05-15 01:24:00,
2013-05-14 21:29:00,60.6,39.8,30.03,SE,142,0.0,0.0,46,0.00,,,0.00,VWS V14.00,2013-05-15 01:29:00,
2013-05-14 21:34:00,60.3,39.4,30.03,SE,142,0.0,0.0,46,0.00,,,0.00,VWS V14.00,2013-05-15 01:34:00,
2013-05-14 21:39:00,60.1,39.8,30.03,SE,142,0.0,0.0,47,0.00,,,0.00,VWS V14.00,2013-05-15 01:39:00,
2013-05-14 21:44:00,59.7,39.5,30.03,SE,142,0.0,0.0,47,0.00,,,0.00,VWS V14.00,2013-05-15 01:44:00,
2013-05-14 21:49:00,59.5,39.3,30.03,SE,142,0.0,0.0,47,0.00,,,0.00,VWS V14.00,2013-05-15 01:49:00,
2013-05-14 21:54:00,59.4,39.2,30.03,SSE,165,0.0,1.1,47,0.00,,,0.00,VWS V14.00,2013-05-15 01:54:00,
2013-05-14 21:59:00,59.2,39.5,30.03,SSE,165,0.0,0.0,48,0.00,,,0.00,VWS V14.00,2013-05-15 01:59:00,
2013-05-14 22:04:00,59.0,39.4,30.03,SSE,165,0.0,0.0,48,0.00,,,0.00,VWS V14.00,2013-05-15 02:04:00,
2013-05-14 22:09:00,59.2,39.5,30.06,SSE,165,0.0,0.0,48,0.00,,,0.00,VWS V14.00,2013-05-15 02:09:00,
2013-05-14 22:14:00,59.2,40.0,30.06,SE,142,0.0,1.3,49,0.00,,,0.00,VWS V14.00,2013-05-15 02:14:00,
2013-05-14 22:19:00,59.2,40.0,30.06,SE,142,0.0,0.0,49,0.00,,,0.00,VWS V14.00,2013-05-15 02:19:00,
2013-05-14 22:25:00,59.2,40.6,30.03,SE,142,0.0,0.0,50,0.00,,,0.00,VWS V14.00,2013-05-15 02:25:00,
2013-05-14 22:30:00,59.2,40.6,30.03,SE,142,0.0,0.0,50,0.00,,,0.00,VWS V14.00,2013-05-15 02:30:00,
2013-05-14 22:35:00,59.0,40.4,30.03,SE,142,0.0,0.0,50,0.00,,,0.00,VWS V14.00,2013-05-15 02:35:00,
2013-05-14 22:40:00,59.2,40.6,30.03,SE,142,0.0,0.0,50,0.00,,,0.00,VWS V14.00,2013-05-15 02:40:00,
2013-05-14 22:45:00,59.0,40.4,30.03,SE,142,0.0,0.0,50,0.00,,,0.00,VWS V14.00,2013-05-15 02:45:00,
2013-05-14 22:50:00,59.0,40.4,30.03,SE,142,0.0,0.0,50,0.00,,,0.00,VWS V14.00,2013-05-15 02:50:00,
2013-05-14 22:55:00,58.8,40.8,30.06,SE,142,0.0,0.0,51,0.00,,,0.00,VWS V14.00,2013-05-15 02:55:00,
2013-05-14 23:00:00,58.6,41.1,30.06,SE,142,0.0,0.0,52,0.00,,,0.00,VWS V14.00,2013-05-15 03:00:00,
2013-05-14 23:05:00,58.5,40.9,30.06,SE,142,0.0,0.0,52,0.00,,,0.00,VWS V14.00,2013-05-15 03:05:00,
2013-05-14 23:10:00,58.5,40.9,30.06,SE,142,0.0,0.0,52,0.00,,,0.00,VWS V14.00,2013-05-15 03:10:00,
2013-05-14 23:15:00,58.5,41.4,30.06,SE,142,0.0,0.0,53,0.00,,,0.00,VWS V14.00,2013-05-15 03:15:00,
2013-05-14 23:20:00,58.3,41.2,30.06,SE,142,0.0,0.0,53,0.00,,,0.00,VWS V14.00,2013-05-15 03:20:00,
2013-05-14 23:25:00,58.3,41.2,30.06,SE,142,0.0,0.0,53,0.00,,,0.00,VWS V14.00,2013-05-15 03:25:00,
2013-05-14 23:30:00,58.1,41.1,30.06,SE,142,0.0,0.0,53,0.00,,,0.00,VWS V14.00,2013-05-15 03:30:00,
2013-05-14 23:35:00,58.3,41.7,30.06,SE,142,0.0,0.0,54,0.00,,,0.00,VWS V14.00,2013-05-15 03:35:00,
2013-05-14 23:40:00,58.1,42.0,30.06,SE,142,0.0,0.0,55,0.00,,,0.00,VWS V14.00,2013-05-15 03:40:00,
2013-05-14 23:46:00,57.9,42.3,30.06,SE,142,0.0,0.0,56,0.00,,,0.00,VWS V14.00,2013-05-15 03:46:00,
2013-05-14 23:51:00,57.7,42.2,30.06,SE,142,0.0,0.0,56,0.00,,,0.00,VWS V14.00,2013-05-15 03:51:00,
2013-05-14 23:56:00,57.6,42.5,30.06,SE,142,0.0,0.0,57,0.00,,,0.00,VWS V14.00,2013-05-15 03:56:00,